Installation & Licensing

Installation & Licensing

Reply
New Member
1 Posts
0 Kudos
Registered: ‎09-10-2013
Post 1 of 3

Failed Setup

294 Views, 2 Replies
09-10-2013 11:59 AM

                                       3ds Max Design 2012 Setup.log

2013/9/10:18:50:47 version36 V36 === Setup started on V36 by version36 ===
2013/9/10:18:50:47 version36 V36 Launch
2013/9/10:18:51:08 version36 V36 System Component Update MSI Runtime (3010)
2013/9/10:18:51:25 version36 V36 === Setup ended ===

2013/9/10:18:51:08 version36 V36 === Setup started on V36 by version36 ===
2013/9/10:18:51:08 version36 V36 Launch
2013/9/10:18:51:26 version36 V36 PageOpen LaunchDialog
2013/9/10:18:52:55 version36 V36 PageOpen LicenseDialog
2013/9/10:18:53:05 version36 V36 PageOpen ProductInfoDialog
2013/9/10:18:57:35 version36 V36 PageOpen ProductSelectionDialog2
2013/9/10:18:58:01 version36 V36 PageOpen FullProgressDialog
2013/9/10:18:58:01 version36 V36 Installing Microsoft Visual C++ 2005 Redistributable (x86): D:\3ds\3rdParty\x86\VCRedist\2005SP1ATL\vcredist_x86.exe /q:a /T:smileyvery-happy::\WINDOWS\temp /c:"VCREDI~3.EXE /q:a /c:""msiexec /i vcredist.msi /qn /l*v D:\DOCUME~1\VERSIO~1\LOCALS~1\Temp\vcredist_x86_2005.log"" "
2013/9/10:18:58:09 version36 V36 Install Microsoft Visual C++ 2005 Redistributable (x86) Succeeded
2013/9/10:18:58:09 version36 V36 Installing Microsoft Visual C++ 2008 SP1 Redistributable (x86): D:\3ds\3rdParty\x86\VCRedist\2008SP1\vcredist_x86.exe /q
2013/9/10:18:58:13 version36 V36 Install Microsoft Visual C++ 2008 SP1 Redistributable (x86) Succeeded
2013/9/10:18:58:13 version36 V36 Installing .NET Framework Runtime 3.5 SP1: D:\3ds\3rdParty\NET\35SP1\wcu\dotNetFramework\dotNetFx35setup.exe /q /norestart
2013/9/10:19:07:16 version36 V36 Install .NET Framework Runtime 3.5 SP1 Succeeded
2013/9/10:19:07:16 version36 V36 Installing DirectX® Runtime: D:\3ds\3rdParty\DirectX\DXSETUP.exe /silent
2013/9/10:19:07:17 version36 V36 Install DirectX® Runtime Succeeded
2013/9/10:19:07:17 version36 V36 Installing Autodesk Material Library 2012: ADSK_EULA_STATUS=#1 ADSK_SOURCE_ROOT="D:\3ds\" FILESINUSETEXT="" REBOOT=ReallySuppress ADSK_SETUP_EXE=1

2013/9/10:19:08:11 version36 V36 Install Autodesk Material Library 2012 Succeeded
2013/9/10:19:08:11 version36 V36 Installing Autodesk Material Library 2012 - Base Image Library: ADSK_EULA_STATUS=#1 ADSK_SOURCE_ROOT="D:\3ds\" FILESINUSETEXT="" REBOOT=ReallySuppress ADSK_SETUP_EXE=1

2013/9/10:19:09:39 version36 V36 Install Autodesk Material Library 2012 - Base Image Library Succeeded
2013/9/10:19:09:39 version36 V36 Installing Autodesk Material Library 2012 - Medium Resolution Library: ADSK_EULA_STATUS=#1 ADSK_SOURCE_ROOT="D:\3ds\" FILESINUSETEXT="" REBOOT=ReallySuppress ADSK_SETUP_EXE=1

2013/9/10:19:14:26 version36 V36 Install Autodesk Material Library 2012 - Medium Resolution Library Succeeded
2013/9/10:19:14:26 version36 V36 Installing Autodesk® Backburner 2012: D:\3ds\x86\Components\backburner\BackburnerCIF.exe
2013/9/10:19:14:26 version36 V36 Install Autodesk® Backburner 2012 Failed Installation aborted, Result=193
2013/9/10:19:16:30 version36 V36 Rollback Autodesk Material Library 2012 - Medium Resolution Library Succeeded
2013/9/10:19:18:34 version36 V36 Rollback Autodesk Material Library 2012 - Base Image Library Succeeded
2013/9/10:19:21:42 version36 V36 Rollback Autodesk Material Library 2012 Succeeded
2013/9/10:19:21:42 version36 V36 Rollback DirectX® Runtime Failed Failure is ignored, Result=1619
2013/9/10:19:21:42 version36 V36 Rollback .NET Framework Runtime 3.5 SP1 Failed Failure is ignored, Result=1619
2013/9/10:19:21:43 version36 V36 Rollback Microsoft Visual C++ 2008 SP1 Redistributable (x86) Failed Installation aborted, Result=1619
2013/9/10:19:21:43 version36 V36 Rollback Microsoft Visual C++ 2005 Redistributable (x86) Failed Installation aborted, Result=1619
2013/9/10:19:21:45 version36 V36 PageOpen InstallCompleteDialog
2013/9/10:19:23:32 version36 V36 === Setup ended ===

2013/9/10:19:56:33 version36 V36 === Setup started on V36 by version36 ===
2013/9/10:19:56:33 version36 V36 Launch
2013/9/10:19:56:58 version36 V36 === Setup ended ===

2013/9/10:19:56:34 version36 V36 === Setup started on V36 by version36 ===
2013/9/10:19:56:34 version36 V36 Launch
2013/9/10:19:56:59 version36 V36 PageOpen LaunchDialog
2013/9/10:19:57:19 version36 V36 PageOpen LicenseDialog
2013/9/10:19:57:34 version36 V36 PageOpen ProductInfoDialog
2013/9/10:20:05:15 version36 V36 PageOpen ProductSelectionDialog2
2013/9/10:20:05:32 version36 V36 PageOpen FullProgressDialog
2013/9/10:20:05:32 version36 V36 Installing DirectX® Runtime: d:\Autodesk\Autodesk_3ds_Max_Design_2012_English_Win_32-64bit\3rdParty\DirectX\DXSETUP.exe /silent
2013/9/10:20:05:33 version36 V36 Install DirectX® Runtime Succeeded
2013/9/10:20:05:33 version36 V36 Installing Autodesk Material Library 2012: ADSK_EULA_STATUS=#1 ADSK_SOURCE_ROOT="d:\Autodesk\Autodesk_3ds_Max_Design_2012_English_Win_32-64bit\" FILESINUSETEXT="" REBOOT=ReallySuppress ADSK_SETUP_EXE=1

2013/9/10:20:06:11 version36 V36 Install Autodesk Material Library 2012 Succeeded
2013/9/10:20:06:11 version36 V36 Installing Autodesk Material Library 2012 - Base Image Library: ADSK_EULA_STATUS=#1 ADSK_SOURCE_ROOT="d:\Autodesk\Autodesk_3ds_Max_Design_2012_English_Win_32-64bit\" FILESINUSETEXT="" REBOOT=ReallySuppress ADSK_SETUP_EXE=1

2013/9/10:20:06:50 version36 V36 Install Autodesk Material Library 2012 - Base Image Library Succeeded
2013/9/10:20:06:50 version36 V36 Installing Autodesk Material Library 2012 - Medium Resolution Library: ADSK_EULA_STATUS=#1 ADSK_SOURCE_ROOT="d:\Autodesk\Autodesk_3ds_Max_Design_2012_English_Win_32-64bit\" FILESINUSETEXT="" REBOOT=ReallySuppress ADSK_SETUP_EXE=1

2013/9/10:20:08:12 version36 V36 Install Autodesk Material Library 2012 - Medium Resolution Library Succeeded
2013/9/10:20:08:12 version36 V36 Installing Autodesk® Backburner 2012: d:\Autodesk\Autodesk_3ds_Max_Design_2012_English_Win_32-64bit\x86\Components\backburner\BackburnerCIF.exe
2013/9/10:20:08:12 version36 V36 Install Autodesk® Backburner 2012 Failed Installation aborted, Result=193
2013/9/10:20:08:34 version36 V36 Rollback Autodesk Material Library 2012 - Medium Resolution Library Succeeded
2013/9/10:20:08:58 version36 V36 Rollback Autodesk Material Library 2012 - Base Image Library Succeeded
2013/9/10:20:09:41 version36 V36 Rollback Autodesk Material Library 2012 Succeeded
2013/9/10:20:09:41 version36 V36 Rollback DirectX® Runtime Failed Failure is ignored, Result=1619
2013/9/10:20:09:44 version36 V36 PageOpen InstallCompleteDialog
2013/9/10:20:17:11 version36 V36 === Setup ended ===

2013/9/10:20:17:17 version36 V36 === Setup started on V36 by version36 ===
2013/9/10:20:17:17 version36 V36 Launch
2013/9/10:20:17:22 version36 V36 === Setup ended ===

2013/9/10:20:17:19 version36 V36 === Setup started on V36 by version36 ===
2013/9/10:20:17:19 version36 V36 Launch
2013/9/10:20:17:22 version36 V36 PageOpen LaunchDialog
2013/9/10:20:18:19 version36 V36 PageOpen BeginDeploymentDialog
2013/9/10:20:18:48 version36 V36 PageOpen LaunchDialog
2013/9/10:20:18:50 version36 V36 PageOpen LicenseDialog
2013/9/10:20:18:50 version36 V36 PageOpen ProductSelectionDialog2
2013/9/10:20:19:15 version36 V36 PageOpen LicenseDialog
2013/9/10:20:19:15 version36 V36 PageOpen LaunchDialog
2013/9/10:20:19:48 version36 V36 PageOpen LicenseDialog
2013/9/10:20:27:06 version36 V36 PageOpen ProductInfoDialog
2013/9/10:20:30:10 version36 V36 PageOpen ProductSelectionDialog2
2013/9/10:20:30:21 version36 V36 PageOpen FullProgressDialog
2013/9/10:20:30:21 version36 V36 Installing DirectX® Runtime: D:\Autodesk\Autodesk_3ds_Max_Design_2012_English_Win_32-64bit\3rdParty\DirectX\DXSETUP.exe /silent
2013/9/10:20:30:21 version36 V36 Install DirectX® Runtime Succeeded
2013/9/10:20:30:21 version36 V36 Installing Autodesk Material Library 2012: ADSK_EULA_STATUS=#1 ADSK_SOURCE_ROOT="D:\Autodesk\Autodesk_3ds_Max_Design_2012_English_Win_32-64bit\" FILESINUSETEXT="" REBOOT=ReallySuppress ADSK_SETUP_EXE=1

2013/9/10:20:30:55 version36 V36 Install Autodesk Material Library 2012 Succeeded
2013/9/10:20:30:55 version36 V36 Installing Autodesk Material Library 2012 - Base Image Library: ADSK_EULA_STATUS=#1 ADSK_SOURCE_ROOT="D:\Autodesk\Autodesk_3ds_Max_Design_2012_English_Win_32-64bit\" FILESINUSETEXT="" REBOOT=ReallySuppress ADSK_SETUP_EXE=1

2013/9/10:20:31:31 version36 V36 Install Autodesk Material Library 2012 - Base Image Library Succeeded
2013/9/10:20:31:31 version36 V36 Installing Autodesk Material Library 2012 - Medium Resolution Library: ADSK_EULA_STATUS=#1 ADSK_SOURCE_ROOT="D:\Autodesk\Autodesk_3ds_Max_Design_2012_English_Win_32-64bit\" FILESINUSETEXT="" REBOOT=ReallySuppress ADSK_SETUP_EXE=1

2013/9/10:20:32:46 version36 V36 Install Autodesk Material Library 2012 - Medium Resolution Library Succeeded
2013/9/10:20:32:47 version36 V36 Installing Autodesk® Backburner 2012: D:\Autodesk\Autodesk_3ds_Max_Design_2012_English_Win_32-64bit\x86\Components\backburner\BackburnerCIF.exe
2013/9/10:20:32:47 version36 V36 Install Autodesk® Backburner 2012 Failed Installation aborted, Result=193
2013/9/10:20:33:08 version36 V36 Rollback Autodesk Material Library 2012 - Medium Resolution Library Succeeded
2013/9/10:20:33:29 version36 V36 Rollback Autodesk Material Library 2012 - Base Image Library Succeeded
2013/9/10:20:34:12 version36 V36 Rollback Autodesk Material Library 2012 Succeeded
2013/9/10:20:34:12 version36 V36 Rollback DirectX® Runtime Failed Failure is ignored, Result=1619
2013/9/10:20:34:14 version36 V36 PageOpen InstallCompleteDialog
2013/9/10:20:34:39 version36 V36 === Setup ended ===

2013/9/10:21:16:22 version36 V36 === Setup started on V36 by version36 ===
2013/9/10:21:16:22 version36 V36 Launch
2013/9/10:21:16:27 version36 V36 === Setup ended ===

 

                                                                Help Me...!  
Msn/Facebook : mhmt-36@hotmail.com
FB : www.facebook.com/mhmt3606

*Expert Elite*
10,911 Posts
902 Kudos
Registered: ‎01-14-2005
Post 2 of 3

Re: Failed Setup

09-10-2013 12:42 PM in reply to: mhmt-36
Reinstall but choose not to install Backburner this should allow the rest to install. If you need Backburner, we can work on it afterwards.
Product Support
780 Posts
70 Kudos
Registered: ‎05-26-2010
Post 3 of 3

Re: Failed Setup

09-11-2013 07:50 AM in reply to: mhmt-36

 

mhmt-36,

 

Hello. Thank you for the log. Search on the work “Failed” and look for all NON-Autodesk programs, specifically C++ and NET. Here I see errors to both NET and C++. Uninstall them and try to install again. They are common blocks if they are out of sync.

 

Thank you for taking part in our community!

 



David Dembkoski
Post to the Community

Have questions about Autodesk products? Ask the community.

New Post
Announcements
Are you interested in helping shape the future of the Autodesk Community? To participate in this brief usability study, please click here. Your time and input is greatly appreciated!